TimeMST,TemperatureF,Dew PointF,Humidity,Sea Level PressureIn,VisibilityMPH,Wind Direction,Wind SpeedMPH,Gust SpeedMPH,PrecipitationIn,Events,Conditions,WindDirDegrees,DateUTC
12:53 AM,48.9,16.0,27,29.86,10.0,West,12.7,-,N/A,,Clear,270,2013-12-18 07:53:00
1:53 AM,37.9,19.9,48,29.88,10.0,NNW,5.8,-,N/A,,Clear,340,2013-12-18 08:53:00
2:53 AM,48.0,15.1,27,29.83,10.0,West,10.4,24.2,N/A,,Clear,270,2013-12-18 09:53:00
3:53 AM,46.0,15.1,29,29.83,10.0,WNW,12.7,-,N/A,,Clear,290,2013-12-18 10:53:00
4:53 AM,48.0,15.1,27,29.82,10.0,West,16.1,-,N/A,,Clear,280,2013-12-18 11:53:00
5:53 AM,48.0,15.1,27,29.82,10.0,West,17.3,-,N/A,,Clear,270,2013-12-18 12:53:00
6:53 AM,45.0,16.0,31,29.81,10.0,WNW,9.2,-,N/A,,Clear,290,2013-12-18 13:53:00
7:53 AM,46.0,17.1,31,29.82,10.0,West,9.2,18.4,N/A,,Clear,280,2013-12-18 14:53:00
8:53 AM,45.0,18.0,34,29.86,10.0,NW,8.1,-,N/A,,Clear,310,2013-12-18 15:53:00
9:53 AM,45.0,19.0,36,29.86,10.0,North,4.6,-,N/A,,Clear,10,2013-12-18 16:53:00
10:53 AM,46.0,21.0,37,29.83,10.0,North,6.9,-,N/A,,Clear,350,2013-12-18 17:53:00
11:53 AM,51.1,21.0,31,29.81,10.0,NW,8.1,-,N/A,,Partly Cloudy,310,2013-12-18 18:53:00
12:53 PM,48.9,21.9,35,29.77,10.0,NNW,10.4,-,N/A,,Clear,330,2013-12-18 19:53:00
1:53 PM,48.9,21.9,35,29.77,10.0,WNW,9.2,-,N/A,,Clear,290,2013-12-18 20:53:00
2:53 PM,46.9,21.9,37,29.74,10.0,SW,8.1,-,N/A,,Partly Cloudy,230,2013-12-18 21:53:00
3:53 PM,46.0,23.0,40,29.75,10.0,SW,5.8,-,N/A,,Clear,220,2013-12-18 22:53:00
4:53 PM,37.9,24.1,57,29.78,10.0,North,8.1,-,N/A,,Mostly Cloudy,360,2013-12-18 23:53:00
5:53 PM,34.0,25.0,70,29.80,10.0,WNW,4.6,-,N/A,,Mostly Cloudy,300,2013-12-19 00:53:00
6:53 PM,32.0,24.1,73,29.82,10.0,NW,3.5,-,N/A,,Mostly Cloudy,320,2013-12-19 01:53:00
7:53 PM,33.1,25.0,72,29.83,10.0,NW,9.2,-,N/A,,Overcast,320,2013-12-19 02:53:00
8:53 PM,28.9,21.9,75,29.88,10.0,NNW,13.8,-,N/A,,Overcast,340,2013-12-19 03:53:00
9:10 PM,28.4,19.4,69,29.79,8.0,North,12.7,-,0.00,Snow,Light Snow,360,2013-12-19 04:10:00
9:19 PM,26.6,19.4,74,29.79,1.8,North,15.0,-,0.00,Snow,Light Snow,350,2013-12-19 04:19:00
9:39 PM,24.8,17.6,74,29.81,1.2,NW,16.1,-,0.00,Snow,Light Snow,320,2013-12-19 04:39:00
9:53 PM,21.9,17.1,82,29.94,1.2,NW,15.0,-,0.00,Snow,Light Snow,320,2013-12-19 04:53:00
10:04 PM,21.2,15.8,80,29.83,1.8,NW,16.1,-,0.00,Snow,Light Snow,320,2013-12-19 05:04:00
10:17 PM,19.4,14.0,80,29.84,1.0,NW,12.7,-,0.00,Snow,Light Snow,320,2013-12-19 05:17:00
10:38 PM,19.4,12.2,74,29.85,1.8,NW,12.7,-,0.01,Snow,Light Snow,320,2013-12-19 05:38:00
10:46 PM,19.4,12.2,74,29.86,2.5,NW,15.0,-,0.01,Snow,Light Snow,320,2013-12-19 05:46:00
10:53 PM,18.0,10.9,74,30.00,2.5,NW,16.1,-,0.01,Snow,Light Snow,310,2013-12-19 05:53:00
11:02 PM,17.6,10.4,73,29.87,3.0,NW,12.7,-,0.00,Snow,Light Snow,320,2013-12-19 06:02:00
11:53 PM,14.0,6.1,71,30.04,9.0,NW,20.7,25.3,0.00,,Overcast,320,2013-12-19 06:53:00